"read_dt","SO2 (ppb)","flags","PMT voltage (V)","lamp voltage (V)","lamp intensity (Hz)","internal temp (C)","react chamber temp (C)","sample flow (l/min)","pres (mmHg)","SO2 bkg (ppb)","SO2 coefficient"
2015-11-03 00:00:00,1743E-3,5C000400,-0724,0828,12301,027.9,045.4,0.256,748.1,01.17,0.508
2015-11-03 00:01:00,1849E-3,5C000400,-0724,0828,12230,027.9,045.4,0.256,748.1,01.17,0.508
2015-11-03 00:02:00,1696E-3,5C000400,-0724,0829,12414,027.9,045.4,0.256,748.1,01.17,0.508
2015-11-03 00:03:00,1828E-3,5C000400,-0724,0828,12266,027.9,045.4,0.256,748.1,01.17,0.508
2015-11-03 00:04:00,1646E-3,5C000400,-0724,0828,12192,027.9,045.4,0.256,748.1,01.17,0.508
2015-11-03 00:05:00,1706E-3,5C000400,-0724,0828,12105,027.9,045.4,0.256,748.1,01.17,0.508
2015-11-03 00:06:00,1668E-3,5C000400,-0724,0829,12340,027.9,045.4,0.256,748.1,01.17,0.508
2015-11-03 00:07:00,1838E-3,5C000400,-0724,0828,12032,027.9,045.4,0.256,748.1,01.17,0.508
2015-11-03 00:08:00,1927E-3,5C000400,-0724,0829,12210,027.9,045.4,0.256,748.1,01.17,0.508
2015-11-03 00:09:00,1586E-3,5C000400,-0724,0828,12199,027.9,045.4,0.256,748.1,01.17,0.508
2015-11-03 00:10:00,1723E-3,5C000400,-0724,0828,12238,027.9,045.4,0.256,748.1,01.17,0.508
2015-11-03 00:11:00,1743E-3,5C000400,-0724,0829,12359,027.9,045.4,0.256,748.1,01.17,0.508
2015-11-03 00:12:00,1694E-3,5C000400,-0724,0829,12234,027.9,045.4,0.256,748.1,01.17,0.508
2015-11-03 00:13:00,1704E-3,5C000400,-0724,0829,12263,027.9,045.4,0.256,748.1,01.17,0.508
2015-11-03 00:14:00,1727E-3,5C000400,-0724,0829,12138,027.9,045.4,0.256,748.1,01.17,0.508
2015-11-03 00:15:00,1789E-3,5C000400,-0724,0828,12209,027.9,045.4,0.256,748.1,01.17,0.508
2015-11-03 00:16:00,1801E-3,5C000400,-0724,0828,12295,027.9,045.4,0.256,748.1,01.17,0.508
2015-11-03 00:17:00,1867E-3,5C000400,-0724,0828,12268,027.9,045.4,0.256,748.2,01.17,0.508
2015-11-03 00:18:00,1820E-3,5C000400,-0724,0828,12196,027.9,045.4,0.256,748.2,01.17,0.508
2015-11-03 00:19:00,1821E-3,5C000400,-0724,0829,12399,027.9,045.4,0.256,748.2,01.17,0.508
2015-11-03 00:20:00,1712E-3,5C000400,-0724,0828,12156,027.9,045.4,0.256,748.2,01.17,0.508
2015-11-03 00:21:00,1676E-3,5C000400,-0724,0828,12162,027.9,045.4,0.256,748.2,01.17,0.508
2015-11-03 00:22:00,1819E-3,5C000400,-0724,0828,12272,027.9,045.4,0.256,748.1,01.17,0.508
2015-11-03 00:23:00,1789E-3,5C000400,-0724,0828,12271,027.9,045.4,0.256,748.1,01.17,0.508
2015-11-03 00:24:00,1836E-3,5C000400,-0724,0829,12370,027.9,045.4,0.256,748.1,01.17,0.508
2015-11-03 00:25:00,1786E-3,5C000400,-0724,0828,12109,027.9,045.4,0.257,748.1,01.17,0.508
2015-11-03 00:26:00,1818E-3,5C000400,-0724,0829,12129,027.9,045.4,0.256,748.2,01.17,0.508
2015-11-03 00:27:00,1783E-3,5C000400,-0724,0828,12192,027.9,045.4,0.256,748.2,01.17,0.508
2015-11-03 00:28:00,1845E-3,5C000400,-0724,0828,12335,027.9,045.4,0.256,748.2,01.17,0.508
2015-11-03 00:29:00,1802E-3,5C000400,-0724,0828,12096,027.9,045.4,0.256,748.2,01.17,0.508
2015-11-03 00:30:00,1789E-3,5C000400,-0724,0828,12316,027.9,045.4,0.256,748.2,01.17,0.508
2015-11-03 00:31:00,1854E-3,5C000400,-0724,0828,12159,027.9,045.4,0.256,748.2,01.17,0.508
2015-11-03 00:32:00,1737E-3,5C000400,-0724,0829,12306,027.8,045.4,0.256,748.2,01.17,0.508
2015-11-03 00:33:00,1596E-3,5C000400,-0724,0829,12305,027.9,045.4,0.256,748.2,01.17,0.508
2015-11-03 00:34:00,1798E-3,5C000400,-0724,0828,12177,027.8,045.4,0.256,748.2,01.17,0.508
2015-11-03 00:35:00,1774E-3,5C000400,-0724,0829,12172,027.8,045.4,0.256,748.2,01.17,0.508
2015-11-03 00:36:00,1717E-3,5C000400,-0724,0828,12284,027.8,045.4,0.256,748.2,01.17,0.508
2015-11-03 00:37:00,1943E-3,5C000400,-0724,0828,12354,027.8,045.4,0.256,748.2,01.17,0.508
2015-11-03 00:38:00,1783E-3,5C000400,-0724,0828,12234,027.8,045.4,0.256,748.2,01.17,0.508
2015-11-03 00:39:00,1866E-3,5C000400,-0724,0828,12162,027.8,045.4,0.256,748.2,01.17,0.508
2015-11-03 00:40:00,1754E-3,5C000400,-0724,0828,12109,027.7,045.4,0.256,748.2,01.17,0.508
2015-11-03 00:41:00,1742E-3,5C000400,-0724,0828,12134,027.7,045.4,0.256,748.2,01.17,0.508
2015-11-03 00:42:00,1787E-3,5C000400,-0724,0828,12163,027.7,045.4,0.256,748.2,01.17,0.508
2015-11-03 00:43:00,1828E-3,5C000400,-0724,0828,12215,027.7,045.5,0.256,748.2,01.17,0.508
2015-11-03 00:44:00,1772E-3,5C000400,-0724,0828,12236,027.7,045.4,0.256,748.2,01.17,0.508
2015-11-03 00:45:00,1624E-3,5C000400,-0724,0828,12204,027.6,045.4,0.256,748.2,01.17,0.508
2015-11-03 00:46:00,1720E-3,5C000400,-0724,0828,12178,027.6,045.4,0.257,748.2,01.17,0.508
2015-11-03 00:47:00,1872E-3,5C000400,-0724,0829,12211,027.6,045.4,0.256,748.2,01.17,0.508
2015-11-03 00:48:00,1775E-3,5C000400,-0724,0827,12294,027.6,045.4,0.256,748.2,01.17,0.508
2015-11-03 00:49:00,1655E-3,5C000400,-0724,0828,12261,027.5,045.4,0.257,748.2,01.17,0.508
2015-11-03 00:50:00,1716E-3,5C000400,-0724,0827,12260,027.5,045.4,0.256,748.2,01.17,0.508
2015-11-03 00:51:00,1795E-3,5C000400,-0724,0828,12120,027.5,045.4,0.257,748.2,01.17,0.508
2015-11-03 00:52:00,1882E-3,5C000400,-0724,0828,12310,027.5,045.4,0.257,748.2,01.17,0.508
2015-11-03 00:53:00,1749E-3,5C000400,-0724,0828,12223,027.5,045.4,0.257,748.2,01.17,0.508
2015-11-03 00:54:00,1674E-3,5C000400,-0724,0828,12377,027.5,045.4,0.257,748.2,01.17,0.508
2015-11-03 00:55:00,1684E-3,5C000400,-0724,0828,12263,027.5,045.4,0.256,748.2,01.17,0.508
2015-11-03 00:56:00,1753E-3,5C000400,-0724,0829,12216,027.4,045.4,0.257,748.2,01.17,0.508
2015-11-03 00:57:00,1735E-3,5C000400,-0724,0828,12158,027.4,045.4,0.256,748.2,01.17,0.508
2015-11-03 00:58:00,1818E-3,5C000400,-0724,0828,12116,027.4,045.4,0.257,748.2,01.17,0.508
2015-11-03 00:59:00,1846E-3,5C000400,-0724,0828,12271,027.4,045.4,0.257,748.2,01.17,0.508
2015-11-03 01:00:00,1800E-3,5C000400,-0724,0828,12327,027.4,045.4,0.257,748.2,01.17,0.508
2015-11-03 01:01:00,1734E-3,5C000400,-0724,0828,12287,027.4,045.4,0.257,748.2,01.17,0.508
2015-11-03 01:02:00,1723E-3,5C000400,-0724,0828,12229,027.4,045.4,0.257,748.2,01.17,0.508
2015-11-03 01:03:00,1754E-3,5C000400,-0724,0828,12189,027.4,045.4,0.257,748.2,01.17,0.508
2015-11-03 01:04:00,1834E-3,5C000400,-0724,0829,12229,027.4,045.4,0.257,748.2,01.17,0.508
2015-11-03 01:05:00,1825E-3,5C000400,-0724,0828,12356,027.4,045.4,0.257,748.3,01.17,0.508
2015-11-03 01:06:00,1784E-3,5C000400,-0724,0828,12271,027.4,045.4,0.257,748.2,01.17,0.508
2015-11-03 01:07:00,1739E-3,5C000400,-0724,0828,12247,027.4,045.4,0.257,748.2,01.17,0.508
2015-11-03 01:08:00,1796E-3,5C000400,-0724,0828,12257,027.4,045.4,0.257,748.2,01.17,0.508
2015-11-03 01:09:00,1801E-3,5C000400,-0724,0828,12149,027.4,045.4,0.257,748.2,01.17,0.508
2015-11-03 01:10:00,1792E-3,5C000400,-0724,0828,12363,027.4,045.4,0.257,748.2,01.17,0.508
2015-11-03 01:11:00,1762E-3,5C000400,-0724,0829,12217,027.4,045.4,0.257,748.2,01.17,0.508
2015-11-03 01:12:00,1877E-3,5C000400,-0724,0828,12270,027.4,045.4,0.256,748.3,01.17,0.508
2015-11-03 01:13:00,1746E-3,5C000400,-0724,0829,12060,027.4,045.4,0.257,748.3,01.17,0.508
2015-11-03 01:14:00,1730E-3,5C000400,-0724,0828,12333,027.4,045.4,0.257,748.3,01.17,0.508
2015-11-03 01:15:00,1758E-3,5C000400,-0724,0829,12253,027.4,045.4,0.257,748.3,01.17,0.508
2015-11-03 01:16:00,1736E-3,5C000400,-0724,0828,12136,027.4,045.4,0.257,748.2,01.17,0.508
2015-11-03 01:17:00,1743E-3,5C000400,-0724,0828,12357,027.4,045.4,0.257,748.2,01.17,0.508
2015-11-03 01:18:00,1670E-3,5C000400,-0724,0829,12269,027.4,045.4,0.257,748.2,01.17,0.508
2015-11-03 01:19:00,1784E-3,5C000400,-0724,0828,12077,027.4,045.4,0.257,748.3,01.17,0.508
2015-11-03 01:20:00,1784E-3,5C000400,-0724,0828,12193,027.4,045.4,0.257,748.3,01.17,0.508
2015-11-03 01:21:00,1742E-3,5C000400,-0724,0828,12221,027.4,045.4,0.257,748.2,01.17,0.508
2015-11-03 01:22:00,1731E-3,5C000400,-0724,0828,12091,027.4,045.4,0.257,748.2,01.17,0.508
2015-11-03 01:23:00,1811E-3,5C000400,-0724,0828,12230,027.4,045.4,0.257,748.2,01.17,0.508
2015-11-03 01:24:00,1677E-3,5C000400,-0724,0828,12116,027.4,045.4,0.257,748.2,01.17,0.508
2015-11-03 01:25:00,1918E-3,5C000400,-0724,0829,12181,027.4,045.4,0.258,748.2,01.17,0.508
2015-11-03 01:26:00,1788E-3,5C000400,-0724,0828,12227,027.4,045.4,0.257,748.3,01.17,0.508
2015-11-03 01:27:00,1906E-3,5C000400,-0724,0829,12205,027.4,045.4,0.257,748.3,01.17,0.508
2015-11-03 01:28:00,1763E-3,5C000400,-0724,0828,12035,027.4,045.4,0.257,748.3,01.17,0.508
2015-11-03 01:29:00,1767E-3,5C000400,-0724,0828,12324,027.4,045.4,0.257,748.3,01.17,0.508
2015-11-03 01:30:00,1664E-3,5C000400,-0724,0829,12258,027.4,045.4,0.257,748.3,01.17,0.508
2015-11-03 01:31:00,1713E-3,5C000400,-0724,0829,12361,027.4,045.4,0.257,748.3,01.17,0.508
2015-11-03 01:32:00,1804E-3,5C000400,-0724,0828,12122,027.5,045.4,0.256,748.3,01.17,0.508
2015-11-03 01:33:00,1787E-3,5C000400,-0724,0828,12182,027.4,045.4,0.257,748.3,01.17,0.508
2015-11-03 01:34:00,1732E-3,5C000400,-0724,0828,12144,027.5,045.4,0.257,748.3,01.17,0.508
2015-11-03 01:35:00,1963E-3,5C000400,-0724,0828,12205,027.5,045.4,0.257,748.3,01.17,0.508
2015-11-03 01:36:00,1783E-3,5C000400,-0724,0828,12249,027.5,045.4,0.257,748.3,01.17,0.508
2015-11-03 01:37:00,1729E-3,5C000400,-0724,0829,12348,027.5,045.4,0.257,748.3,01.17,0.508
2015-11-03 01:38:00,1797E-3,5C000400,-0724,0829,12234,027.4,045.4,0.256,748.4,01.17,0.508
2015-11-03 01:39:00,1772E-3,5C000400,-0724,0828,12206,027.5,045.4,0.257,748.4,01.17,0.508
2015-11-03 01:40:00,1794E-3,5C000400,-0724,0829,12254,027.5,045.4,0.257,748.4,01.17,0.508
2015-11-03 01:41:00,1806E-3,5C000400,-0724,0828,12246,027.5,045.4,0.257,748.4,01.17,0.508
2015-11-03 01:42:00,1733E-3,5C000400,-0724,0828,12330,027.5,045.4,0.257,748.4,01.17,0.508
2015-11-03 01:43:00,1699E-3,5C000400,-0724,0828,12144,027.5,045.4,0.257,748.4,01.17,0.508
2015-11-03 01:44:00,1687E-3,5C000400,-0724,0828,12235,027.5,045.4,0.257,748.3,01.17,0.508
2015-11-03 01:45:00,1759E-3,5C000400,-0724,0829,12152,027.5,045.4,0.257,748.3,01.17,0.508
2015-11-03 01:46:00,1773E-3,5C000400,-0724,0828,12299,027.5,045.4,0.257,748.3,01.17,0.508
2015-11-03 01:47:00,1738E-3,5C000400,-0724,0828,12234,027.5,045.4,0.257,748.4,01.17,0.508
2015-11-03 01:48:00,1784E-3,5C000400,-0724,0828,12255,027.5,045.4,0.257,748.3,01.17,0.508
2015-11-03 01:49:00,1723E-3,5C000400,-0724,0828,11982,027.5,045.4,0.257,748.4,01.17,0.508
2015-11-03 01:50:00,1794E-3,5C000400,-0724,0828,12152,027.5,045.4,0.257,748.4,01.17,0.508
2015-11-03 01:51:00,1763E-3,5C000400,-0724,0829,12241,027.5,045.4,0.257,748.4,01.17,0.508
2015-11-03 01:52:00,1723E-3,5C000400,-0724,0828,12157,027.5,045.4,0.257,748.4,01.17,0.508
2015-11-03 01:53:00,1860E-3,5C000400,-0724,0829,12209,027.5,045.4,0.257,748.4,01.17,0.508
2015-11-03 01:54:00,1733E-3,5C000400,-0724,0828,12380,027.5,045.4,0.257,748.4,01.17,0.508
2015-11-03 01:55:00,1755E-3,5C000400,-0724,0828,12251,027.5,045.4,0.257,748.3,01.17,0.508
2015-11-03 01:56:00,1795E-3,5C000400,-0724,0828,12105,027.6,045.4,0.257,748.4,01.17,0.508
2015-11-03 01:57:00,1761E-3,5C000400,-0724,0828,12213,027.5,045.4,0.257,748.4,01.17,0.508
2015-11-03 01:58:00,1796E-3,5C000400,-0724,0828,12343,027.5,045.4,0.257,748.4,01.17,0.508
2015-11-03 01:59:00,1874E-3,5C000400,-0724,0829,12186,027.6,045.4,0.257,748.4,01.17,0.508
2015-11-03 02:00:00,1802E-3,5C000400,-0724,0829,12132,027.6,045.4,0.257,748.3,01.17,0.508
2015-11-03 02:01:00,1646E-3,5C000400,-0724,0828,12157,027.6,045.4,0.257,748.3,01.17,0.508
2015-11-03 02:02:00,1721E-3,5C000400,-0724,0828,12046,027.6,045.4,0.257,748.4,01.17,0.508
2015-11-03 02:03:00,1678E-3,5C000400,-0724,0828,12201,027.6,045.4,0.257,748.4,01.17,0.508
2015-11-03 02:04:00,1874E-3,5C000400,-0724,0828,12184,027.6,045.4,0.257,748.4,01.17,0.508
2015-11-03 02:05:00,1788E-3,5C000400,-0724,0828,12028,027.7,045.4,0.257,748.4,01.17,0.508
2015-11-03 02:06:00,1773E-3,5C000400,-0724,0827,12240,027.6,045.4,0.257,748.4,01.17,0.508
2015-11-03 02:07:00,1804E-3,5C000400,-0724,0827,12147,027.6,045.4,0.257,748.4,01.17,0.508
2015-11-03 02:08:00,1829E-3,5C000400,-0724,0828,12205,027.6,045.4,0.257,748.4,01.17,0.508
2015-11-03 02:09:00,1705E-3,5C000400,-0724,0828,12249,027.6,045.4,0.257,748.4,01.17,0.508
2015-11-03 02:10:00,1880E-3,5C000400,-0724,0829,12177,027.6,045.4,0.256,748.4,01.17,0.508
2015-11-03 02:11:00,1745E-3,5C000400,-0724,0828,12282,027.7,045.4,0.257,748.4,01.17,0.508
2015-11-03 02:12:00,1802E-3,5C000400,-0724,0830,12356,027.7,045.4,0.256,748.4,01.17,0.508
2015-11-03 02:13:00,1782E-3,5C000400,-0724,0829,12181,027.7,045.4,0.257,748.4,01.17,0.508
2015-11-03 02:14:00,1570E-3,5C000400,-0724,0828,12251,027.7,045.4,0.256,748.4,01.17,0.508
2015-11-03 02:15:00,1627E-3,5C000400,-0724,0828,12198,027.7,045.4,0.257,748.4,01.17,0.508
2015-11-03 02:16:00,1774E-3,5C000400,-0724,0828,12253,027.7,045.4,0.256,748.4,01.17,0.508
2015-11-03 02:17:00,1901E-3,5C000400,-0724,0829,12221,027.7,045.4,0.257,748.4,01.17,0.508
2015-11-03 02:18:00,1704E-3,5C000400,-0724,0828,12135,027.7,045.4,0.256,748.4,01.17,0.508
2015-11-03 02:19:00,1667E-3,5C000400,-0724,0828,12250,027.7,045.4,0.257,748.4,01.17,0.508
2015-11-03 02:20:00,1833E-3,5C000400,-0724,0828,12318,027.7,045.4,0.256,748.4,01.17,0.508
2015-11-03 02:21:00,1835E-3,5C000400,-0724,0829,12232,027.7,045.4,0.256,748.4,01.17,0.508
2015-11-03 02:22:00,1764E-3,5C000400,-0724,0828,12150,027.8,045.4,0.256,748.4,01.17,0.508
2015-11-03 02:23:00,1767E-3,5C000400,-0724,0829,12231,027.7,045.4,0.257,748.4,01.17,0.508
2015-11-03 02:24:00,1646E-3,5C000400,-0724,0828,12210,027.7,045.4,0.256,748.4,01.17,0.508
2015-11-03 02:25:00,1803E-3,5C000400,-0724,0828,12089,027.7,045.4,0.257,748.4,01.17,0.508
2015-11-03 02:26:00,1812E-3,5C000400,-0724,0828,12239,027.7,045.4,0.256,748.4,01.17,0.508
2015-11-03 02:27:00,1914E-3,5C000400,-0724,0828,12104,027.8,045.4,0.257,748.5,01.17,0.508
2015-11-03 02:28:00,1742E-3,5C000400,-0724,0828,12295,027.7,045.4,0.256,748.5,01.17,0.508
2015-11-03 02:29:00,1685E-3,5C000400,-0724,0828,12143,027.8,045.4,0.257,748.4,01.17,0.508
2015-11-03 02:30:00,1953E-3,5C000400,-0724,0829,12071,027.8,045.4,0.256,748.4,01.17,0.508
2015-11-03 02:31:00,1713E-3,5C000400,-0724,0828,12178,027.8,045.4,0.256,748.4,01.17,0.508
2015-11-03 02:32:00,1819E-3,5C000400,-0724,0828,12245,027.8,045.4,0.256,748.4,01.17,0.508
2015-11-03 02:33:00,1791E-3,5C000400,-0724,0828,12226,027.8,045.4,0.256,748.4,01.17,0.508
2015-11-03 02:34:00,1731E-3,5C000400,-0724,0828,12169,027.8,045.4,0.256,748.4,01.17,0.508
2015-11-03 02:35:00,1733E-3,5C000400,-0724,0828,12325,027.8,045.4,0.256,748.5,01.17,0.508
2015-11-03 02:36:00,1821E-3,5C000400,-0724,0829,12157,027.8,045.4,0.256,748.4,01.17,0.508
2015-11-03 02:37:00,1861E-3,5C000400,-0724,0828,12183,027.8,045.4,0.256,748.4,01.17,0.508
2015-11-03 02:38:00,1775E-3,5C000400,-0724,0828,12212,027.8,045.4,0.256,748.4,01.17,0.508
2015-11-03 02:39:00,1829E-3,5C000400,-0724,0828,12237,027.8,045.4,0.256,748.4,01.17,0.508
2015-11-03 02:40:00,1642E-3,5C000400,-0724,0829,12320,027.8,045.4,0.256,748.5,01.17,0.508
2015-11-03 02:41:00,1661E-3,5C000400,-0724,0828,12127,027.8,045.4,0.256,748.5,01.17,0.508
2015-11-03 02:42:00,1789E-3,5C000400,-0724,0829,12076,027.8,045.4,0.257,748.4,01.17,0.508
2015-11-03 02:43:00,1930E-3,5C000400,-0724,0829,12207,027.8,045.4,0.256,748.4,01.17,0.508
2015-11-03 02:44:00,1860E-3,5C000400,-0724,0828,12367,027.8,045.4,0.256,748.4,01.17,0.508
2015-11-03 02:45:00,1776E-3,5C000400,-0724,0827,12290,027.9,045.4,0.256,748.4,01.17,0.508
2015-11-03 02:46:00,1633E-3,5C000400,-0724,0826,12195,027.9,045.4,0.256,748.4,01.17,0.508
2015-11-03 02:47:00,1761E-3,5C000400,-0724,0827,12304,027.9,045.4,0.256,748.4,01.17,0.508
2015-11-03 02:48:00,1651E-3,5C000400,-0724,0827,12119,027.9,045.4,0.256,748.4,01.17,0.508
2015-11-03 02:49:00,1833E-3,5C000400,-0724,0826,12273,027.9,045.4,0.256,748.4,01.17,0.508
2015-11-03 02:50:00,1790E-3,5C000400,-0724,0828,12158,027.9,045.4,0.256,748.4,01.17,0.508
2015-11-03 02:51:00,1770E-3,5C000400,-0724,0827,12240,027.9,045.4,0.256,748.4,01.17,0.508
2015-11-03 02:52:00,1759E-3,5C000400,-0724,0828,12301,027.9,045.4,0.256,748.4,01.17,0.508
2015-11-03 02:53:00,1753E-3,5C000400,-0724,0828,12082,027.9,045.4,0.256,748.4,01.17,0.508
2015-11-03 02:54:00,1809E-3,5C000400,-0724,0828,12174,027.9,045.4,0.256,748.4,01.17,0.508
2015-11-03 02:55:00,1864E-3,5C000400,-0724,0829,12283,027.9,045.4,0.256,748.4,01.17,0.508
2015-11-03 02:56:00,1967E-3,5C000400,-0724,0828,12227,027.9,045.4,0.256,748.4,01.17,0.508
2015-11-03 02:57:00,1738E-3,5C000400,-0724,0829,12244,027.9,045.4,0.256,748.4,01.17,0.508
2015-11-03 02:58:00,1831E-3,5C000400,-0724,0828,12314,027.9,045.4,0.256,748.4,01.17,0.508
2015-11-03 02:59:00,1903E-3,5C000400,-0724,0829,12112,027.9,045.4,0.256,748.4,01.17,0.508
2015-11-03 03:00:00,1814E-3,5C000400,-0724,0828,12170,027.9,045.4,0.256,748.4,01.17,0.508
2015-11-03 03:01:00,1803E-3,5C000400,-0724,0828,12277,027.9,045.4,0.256,748.4,01.17,0.508
2015-11-03 03:02:00,1790E-3,5C000400,-0724,0828,12353,027.9,045.4,0.256,748.4,01.17,0.508
2015-11-03 03:03:00,1738E-3,5C000400,-0724,0828,12233,027.9,045.4,0.256,748.4,01.17,0.508
2015-11-03 03:04:00,1848E-3,5C000400,-0724,0828,12164,028.0,045.4,0.256,748.4,01.17,0.508
2015-11-03 03:05:00,1796E-3,5C000400,-0724,0829,12300,027.9,045.4,0.256,748.4,01.17,0.508
2015-11-03 03:06:00,1811E-3,5C000400,-0724,0828,12331,027.9,045.4,0.256,748.5,01.17,0.508
2015-11-03 03:07:00,1806E-3,5C000400,-0724,0829,12306,027.9,045.4,0.256,748.4,01.17,0.508
2015-11-03 03:08:00,1845E-3,5C000400,-0724,0828,12431,028.0,045.4,0.256,748.5,01.17,0.508
2015-11-03 03:09:00,1877E-3,5C000400,-0724,0829,12221,027.9,045.4,0.256,748.5,01.17,0.508
2015-11-03 03:10:00,1868E-3,5C000400,-0724,0828,12238,027.9,045.4,0.256,748.5,01.17,0.508
2015-11-03 03:11:00,1710E-3,5C000400,-0724,0828,12134,027.9,045.4,0.256,748.5,01.17,0.508
2015-11-03 03:12:00,1796E-3,5C000400,-0724,0829,12305,028.0,045.4,0.256,748.5,01.17,0.508
2015-11-03 03:13:00,1624E-3,5C000400,-0724,0828,12256,028.0,045.4,0.256,748.5,01.17,0.508
2015-11-03 03:14:00,1723E-3,5C000400,-0724,0828,12225,028.0,045.4,0.256,748.5,01.17,0.508
2015-11-03 03:15:00,1712E-3,5C000400,-0724,0828,12212,028.0,045.4,0.256,748.5,01.17,0.508
2015-11-03 03:16:00,1757E-3,5C000400,-0724,0828,12203,028.0,045.4,0.256,748.6,01.17,0.508
2015-11-03 03:17:00,1736E-3,5C000400,-0724,0829,12238,028.0,045.4,0.256,748.5,01.17,0.508
2015-11-03 03:18:00,1959E-3,5C000400,-0724,0829,12251,028.0,045.4,0.256,748.5,01.17,0.508
2015-11-03 03:19:00,1798E-3,5C000400,-0724,0828,12213,028.0,045.4,0.256,748.5,01.17,0.508
2015-11-03 03:20:00,1791E-3,5C000400,-0724,0828,12342,028.0,045.4,0.256,748.5,01.17,0.508
2015-11-03 03:21:00,1754E-3,5C000400,-0724,0829,12091,028.0,045.4,0.256,748.6,01.17,0.508
2015-11-03 03:22:00,1754E-3,5C000400,-0724,0828,12245,028.0,045.4,0.256,748.5,01.17,0.508
2015-11-03 03:23:00,1720E-3,5C000400,-0724,0829,12183,028.0,045.4,0.257,748.5,01.17,0.508
2015-11-03 03:24:00,1857E-3,5C000400,-0724,0828,12159,028.0,045.4,0.256,748.5,01.17,0.508
2015-11-03 03:25:00,1871E-3,5C000400,-0724,0828,12208,028.0,045.4,0.256,748.5,01.17,0.508
2015-11-03 03:26:00,1672E-3,5C000400,-0724,0828,12238,028.0,045.4,0.256,748.6,01.17,0.508
2015-11-03 03:27:00,1770E-3,5C000400,-0724,0829,12181,028.0,045.4,0.256,748.5,01.17,0.508
2015-11-03 03:28:00,1697E-3,5C000400,-0724,0829,12293,028.0,045.4,0.256,748.6,01.17,0.508
2015-11-03 03:29:00,1820E-3,5C000400,-0724,0828,12297,028.0,045.4,0.256,748.6,01.17,0.508
2015-11-03 03:30:00,1663E-3,5C000400,-0724,0829,12130,028.0,045.4,0.256,748.6,01.17,0.508
2015-11-03 03:31:00,1901E-3,5C000400,-0724,0828,12158,028.0,045.4,0.256,748.6,01.17,0.508
2015-11-03 03:32:00,1878E-3,5C000400,-0724,0829,12242,028.0,045.4,0.256,748.6,01.17,0.508
2015-11-03 03:33:00,1840E-3,5C000400,-0724,0828,12312,028.0,045.4,0.255,748.6,01.17,0.508
2015-11-03 03:34:00,1742E-3,5C000400,-0724,0828,12253,028.1,045.4,0.256,748.6,01.17,0.508
2015-11-03 03:35:00,1706E-3,5C000400,-0724,0828,12229,028.0,045.4,0.256,748.6,01.17,0.508
2015-11-03 03:36:00,1788E-3,5C000400,-0724,0827,12035,028.0,045.4,0.256,748.6,01.17,0.508
2015-11-03 03:37:00,1733E-3,5C000400,-0724,0829,12218,028.0,045.4,0.256,748.6,01.17,0.508
2015-11-03 03:38:00,1802E-3,5C000400,-0724,0828,12259,028.0,045.4,0.256,748.6,01.17,0.508
2015-11-03 03:39:00,1797E-3,5C000400,-0724,0828,12227,028.0,045.4,0.256,748.6,01.17,0.508
2015-11-03 03:40:00,1737E-3,5C000400,-0724,0828,12209,028.1,045.4,0.255,748.6,01.17,0.508
2015-11-03 03:41:00,1766E-3,5C000400,-0724,0828,12201,028.0,045.4,0.256,748.6,01.17,0.508
2015-11-03 03:42:00,1773E-3,5C000400,-0724,0829,12265,028.1,045.4,0.256,748.6,01.17,0.508
2015-11-03 03:43:00,1780E-3,5C000400,-0724,0828,12306,028.0,045.4,0.256,748.6,01.17,0.508
2015-11-03 03:44:00,1746E-3,5C000400,-0724,0828,12257,028.1,045.4,0.256,748.6,01.17,0.508
2015-11-03 03:45:00,1935E-3,5C000400,-0724,0828,12365,028.1,045.4,0.256,748.6,01.17,0.508
2015-11-03 03:46:00,1757E-3,5C000400,-0724,0828,12280,028.0,045.4,0.256,748.6,01.17,0.508
2015-11-03 03:47:00,1865E-3,5C000400,-0724,0828,12206,028.1,045.4,0.256,748.6,01.17,0.508
2015-11-03 03:48:00,1771E-3,5C000400,-0724,0828,12197,028.1,045.5,0.256,748.6,01.17,0.508
2015-11-03 03:49:00,1808E-3,5C000400,-0724,0828,12245,028.1,045.4,0.256,748.6,01.17,0.508
2015-11-03 03:50:00,1745E-3,5C000400,-0724,0828,12169,028.1,045.4,0.256,748.6,01.17,0.508
2015-11-03 03:51:00,1713E-3,5C000400,-0724,0828,12161,028.1,045.4,0.256,748.6,01.17,0.508
2015-11-03 03:52:00,1674E-3,5C000400,-0724,0828,12077,028.1,045.4,0.255,748.6,01.17,0.508
2015-11-03 03:53:00,1715E-3,5C000400,-0724,0828,12184,028.1,045.4,0.256,748.6,01.17,0.508
2015-11-03 03:54:00,1838E-3,5C000400,-0724,0828,12236,028.1,045.4,0.256,748.6,01.17,0.508
2015-11-03 03:55:00,1727E-3,5C000400,-0724,0828,12251,028.1,045.4,0.256,748.6,01.17,0.508
2015-11-03 03:56:00,1717E-3,5C000400,-0724,0828,12223,028.1,045.4,0.255,748.6,01.17,0.508
2015-11-03 03:57:00,1664E-3,5C000400,-0724,0829,12226,028.1,045.4,0.256,748.7,01.17,0.508
2015-11-03 03:58:00,1838E-3,5C000400,-0724,0828,12313,028.1,045.4,0.256,748.7,01.17,0.508
2015-11-03 03:59:00,1750E-3,5C000400,-0724,0828,12188,028.1,045.4,0.256,748.7,01.17,0.508
2015-11-03 04:00:00,1758E-3,5C000400,-0724,0828,12302,028.1,045.4,0.256,748.7,01.17,0.508
2015-11-03 04:01:00,1802E-3,5C000400,-0724,0827,12256,028.1,045.4,0.255,748.7,01.17,0.508
2015-11-03 04:02:00,1823E-3,5C000400,-0724,0828,12237,028.1,045.4,0.256,748.7,01.17,0.508
2015-11-03 04:03:00,1871E-3,5C000400,-0724,0828,12318,028.1,045.4,0.256,748.7,01.17,0.508
2015-11-03 04:04:00,1846E-3,5C000400,-0724,0828,12273,028.1,045.4,0.255,748.7,01.17,0.508
2015-11-03 04:05:00,1807E-3,5C000400,-0724,0828,12175,028.1,045.4,0.256,748.7,01.17,0.508
2015-11-03 04:06:00,1869E-3,5C000400,-0724,0828,12233,028.1,045.4,0.256,748.7,01.17,0.508
2015-11-03 04:07:00,1679E-3,5C000400,-0724,0829,12331,028.1,045.4,0.255,748.7,01.17,0.508
2015-11-03 04:08:00,1844E-3,5C000400,-0724,0828,12029,028.1,045.4,0.256,748.7,01.17,0.508
2015-11-03 04:09:00,1670E-3,5C000400,-0724,0829,12315,028.1,045.4,0.256,748.7,01.17,0.508
2015-11-03 04:10:00,1708E-3,5C000400,-0724,0828,12292,028.1,045.4,0.255,748.7,01.17,0.508
2015-11-03 04:11:00,1826E-3,5C000400,-0724,0828,12187,028.1,045.4,0.256,748.7,01.17,0.508
2015-11-03 04:12:00,1775E-3,5C000400,-0724,0828,12147,028.1,045.5,0.256,748.7,01.17,0.508
2015-11-03 04:13:00,1747E-3,5C000400,-0724,0829,12169,028.1,045.4,0.255,748.7,01.17,0.508
2015-11-03 04:14:00,1965E-3,5C000400,-0724,0828,12258,028.1,045.4,0.256,748.7,01.17,0.508
2015-11-03 04:15:00,1725E-3,5C000400,-0724,0828,12288,028.2,045.4,0.256,748.7,01.17,0.508
2015-11-03 04:16:00,1815E-3,5C000400,-0724,0829,12283,028.1,045.4,0.255,748.7,01.17,0.508
2015-11-03 04:17:00,1799E-3,5C000400,-0724,0828,12262,028.1,045.4,0.256,748.7,01.17,0.508
2015-11-03 04:18:00,1849E-3,5C000400,-0724,0828,12237,028.1,045.4,0.256,748.7,01.17,0.508
2015-11-03 04:19:00,1874E-3,5C000400,-0724,0829,12295,028.1,045.5,0.255,748.7,01.17,0.508
2015-11-03 04:20:00,1791E-3,5C000400,-0724,0828,12145,028.1,045.4,0.256,748.7,01.17,0.508